Regional Weather Roundup
Issued by NWS

Home | Current Version | Previous Version | Text Only | Print | Product List | Glossary On
Versions: 1 2 3 4 5 6 7 8 9 10 11 12 13 14 15 16 17 18 19 20 21 22 23 24 25 26 27 28 29 30 31 32 33 34 35 36 37 38 39 40 41 42 43 44 45 46 47 48 49 50
000
ASUS43 KLOT 261610
RWRIL

ILLINOIS REGIONAL WEATHER ROUNDUP
NATIONAL WEATHER SERVICE CHICAGO/ROMEOVILLE IL
1000 AM CST MON JAN 26 2015

NOTE: "FAIR" INDICATES FEW OR NO CLOUDS BELOW 12,000 FEET WITH NO
SIGNIFICANT WEATHER AND/OR OBSTRUCTIONS TO VISIBILITY.

* THESE STATIONS ARE NOT UNDER NWS QUALITY CONTROL. THEY ALSO MAY NOT
  REPORT WEATHER SUCH AS PRECIPITATION OR FOG.

ILZ001-002-007-009-015-016-024-261700-
NORTHWEST ILLINOIS

CITY           SKY/WX    TMP DP  RH WIND       PRES   REMARKS
MOLINE         SNOW      22  20  92 E3        29.94R VSB 1/2
STERLING*      CLOUDY    19  16  86 S3        29.94F VSB 1/2
SAVANNA*       LGT SNOW  21  17  85 S7        29.93F WCI  12
$$

ILZ003-004-008-010-011-017-018-261700-
NORTH CENTRAL ILLINOIS

CITY           SKY/WX    TMP DP  RH WIND       PRES   REMARKS
ROCKFORD       CLOUDY    20  14  77 S6        29.94F WCI  12
FREEPORT*      LGT SNOW  19  16  86 S9        29.92F WCI   8
ROCHELLE*      CLOUDY    19  15  85 CALM      29.94F
DE KALB*       CLOUDY    20  16  82 S6        29.94S WCI  13
PERU*          CLOUDY    22  17  82 S5        29.97S WCI  15
$$

ILZ005-006-012>014-019>023-261700-
NORTHEAST ILLINOIS

CITY           SKY/WX    TMP DP  RH WIND       PRES   REMARKS
CHICAGO-OHARE  CLOUDY    23  15  71 SW3       29.94F
CHICAGO-MIDWAY CLOUDY    25  18  74 VRB3      29.96S
AURORA         CLOUDY    23  15  71 SE3       29.95F
LANSING*       CLOUDY    22  13  70 SW3       29.97S
JOLIET*        PTSUNNY   22  17  81 CALM      29.97S
WAUKEGAN       CLOUDY    23  15  71 SW5       29.94S WCI  17
DUPAGE AIRPORT PTSUNNY   22  16  78 S3        29.93F
KANKAKEE*      CLOUDY    24  19  84 CALM      29.97F
WHEELING       CLOUDY    23  15  71 CALM      29.96F
MORRIS*        MOSUNNY   21  19  89 CALM      29.96F
ROMEOVILLE*    CLOUDY    23  19  84 CALM      29.96S
NORTHERLY ISL    N/A     25  17  72 S1          N/A
$$

LMZ740>746-261700-
SOUTHERN LAKE MICHIGAN

STATION/POSITION SKY/WX   TEMP    WIND        PRES    VSBY  WAVE
                          AIR SEA DIR/SP/G                  HT/PER
                          (F)     (DEG/KT/KT) (MB)    (MI)  (FT/S)
WAUKEGAN HARBOR            23      CALM  /  4   N/A
HARRISON CRIB              22     190/ 10/ 12   N/A
BURNHAM HARBOR             24     200/  4/  9   N/A
CALUMET HARBOR             22     210/  4/  7   N/A
MICHIGAN CITY              18     160/  4/  5   N/A
$$

ILZ025>027-034>036-040-047-049-050-058-095>099-261700-
WEST-CENTRAL ILLINOIS

CITY           SKY/WX    TMP DP  RH WIND       PRES   REMARKS
QUINCY         CLOUDY    29  25  85 S12       29.93F WCI  19
GALESBURG*     LGT SNOW  23  22  93 S8        29.93F VSB 3/4 WCI  14
MACOMB*        LGT SNOW  26  25  95 S9        29.96F VSB 3/4 WCI  17
JACKSONVILLE*  CLOUDY    29  25  83 S6        29.98F WCI  23
PITTSFIELD*    CLOUDY    30  26  84 S9        29.97F WCI  22
$$

ILZ028>032-037-038-041>044-048-051>054-059>061-261700-
CENTRAL ILLINOIS

CITY           SKY/WX    TMP DP  RH WIND       PRES   REMARKS
PONTIAC        PTSUNNY   24  20  87 SW7       29.98S WCI  16
BLOOMINGTON    CLOUDY    23  19  85 SW7       29.97F WCI  15
DECATUR        CLOUDY    25  23  92 W6        30.00S WCI  18
PEORIA         LGT SNOW  24  19  81 S8        29.97S WCI  15
LACON*         LGT SNOW  22  16  78 CALM      29.97R
LINCOLN*       CLOUDY    26  20  75 CALM      30.00F
SPRINGFIELD    CLOUDY    26  19  74 SW6       30.00F WCI  19
TAYLORVILLE    CLOUDY    27  19  74 W9        30.02F WCI  17
$$

ILZ033-039-045-046-055>057-062-063-261700-
EAST-CENTRAL ILLINOIS

CITY           SKY/WX    TMP DP  RH WIND       PRES   REMARKS
CHAMPAIGN      PTSUNNY   25  21  85 W7        29.99R WCI  17
DANVILLE*      CLOUDY    25  20  81 W10       29.96R WCI  15
RANTOUL*       PTSUNNY   27  22  82 W6        29.98S WCI  20
MATTOON        CLOUDY    25  20  81 W9        30.00S WCI  15
PARIS*         CLOUDY    28  24  86 NE8       30.00S WCI  19
$$

ILZ079-100>102-261700-
SOUTHWEST ILLINOIS

CITY           SKY/WX    TMP DP  RH WIND       PRES   REMARKS
ALTON          CLOUDY    30  23  74 W7        30.05F WCI  23
BELLEVILLE     CLOUDY    31  25  80 W6        30.06S WCI  25
CAHOKIA*       CLOUDY    31  24  75 W5        30.07S WCI  26
SPARTA*        CLOUDY    29  23  76 NW7       30.09R WCI  22
$$

ILZ064>066-069>071-074>076-080>082-084>086-088>090-092>094-261700-
SOUTH-CENTRAL ILLINOIS

CITY           SKY/WX    TMP DP  RH WIND       PRES   REMARKS
CARBONDALE     MOSUNNY   32  24  72 NW13      30.09R WCI  22
CAIRO*         MOSUNNY   36  28  74 NW9       30.10R WCI  29
EFFINGHAM*     PTSUNNY   28  20  72 W10       30.04S WCI  18
MARION         PTSUNNY   32  23  69 W14       30.09R WCI  22
MT. VERNON     PTSUNNY   28  19  69 W6        30.06R WCI  22
CENTRALIA*     FAIR      29  21  73 NW9G16    30.05F WCI  21
SALEM*         MOSUNNY   30  22  72 W10       30.05S WCI  21
METROPOLIS*    MOSUNNY   33  26  77 NW10      30.08R WCI  24
$$

ILZ067-068-072-073-078-083-087-091-261700-
SOUTHEAST ILLINOIS

CITY           SKY/WX    TMP DP  RH WIND       PRES   REMARKS
LAWRENCEVILLE  CLOUDY    30  24  78 W8        30.03R WCI  22
FLORA*         CLOUDY    28  22  81 W9        30.05R WCI  19
FAIRFIELD*     CLOUDY    29  22  75 W6        30.06R WCI  22
HARRISBURG*    PTSUNNY   29  23  77 NW12G17   30.09R WCI  19
ROBINSON*      CLOUDY    29  25  83 NW9       30.02S WCI  21
CARMI*         CLOUDY    30  27  86 W15       30.06R WCI  19
$$

ABBREVIATIONS USED IN REMARKS
   TC - TEMPERATURE IN CELSIUS
  WCI - WIND CHILL INDEX
   HX - HEAT INDEX
  VSB - VISIBILITY
$$



USA.gov is the U.S. government's official web portal to all federal, state and local government web resources and services.